When you browse on this site, cookies collect data to enhance your experience and personalize the content and advertising you see.
Visit our Privacy Policy to learn more. By continuing to use the site, you agree to this use of cookies and data.
  • In Österreich
  • Länderverzeichnis
  • Für 7 Tage
  • Wassertemperatur
  • Wetterkarte
  • News
  • Widgets
  • user-avatar
    Anmelden

    Stündliche Wetter La Massana

    Heute, 15 Dezember, Sonntag

    Zeit Temperatur Niederschläge Wind Luftdruck Luftfeuchtigkeit
    00:00 +1°C° 0 mm 1 m/S 605 mmHg 81%
    01:00 +1°C° 0 mm 1 m/S 605 mmHg 77%
    02:00 +1°C° 0 mm 1 m/S 604 mmHg 74%
    03:00 +1°C° 0 mm 1 m/S 604 mmHg 70%
    04:00 +1°C° 0 mm 1 m/S 604 mmHg 69%
    05:00 +1°C° 0 mm 1 m/S 604 mmHg 69%
    06:00 +1°C° 0 mm 1 m/S 604 mmHg 68%
    07:00 +2°C° 0 mm 1 m/S 605 mmHg 68%
    08:00 +3°C° 0 mm 1 m/S 606 mmHg 68%
    09:00 +4°C° 0 mm 1 m/S 606 mmHg 68%
    10:00 +5°C° 0 mm 1 m/S 607 mmHg 68%
    11:00 +6°C° 0 mm 1 m/S 607 mmHg 68%
    12:00 +6°C° 0 mm 2 m/S 607 mmHg 68%
    13:00 +5°C° 0 mm 2 m/S 607 mmHg 71%
    14:00 +5°C° 0 mm 2 m/S 606 mmHg 73%
    15:00 +4°C° 0 mm 2 m/S 606 mmHg 75%
    16:00 +3°C° 0 mm 2 m/S 605 mmHg 76%
    17:00 +1°C° 0 mm 2 m/S 604 mmHg 76%
    18:00 -1°C° 0 mm 2 m/S 604 mmHg 77%
    19:00 -1°C° 0 mm 2 m/S 604 mmHg 74%
    20:00 -1°C° 0 mm 2 m/S 604 mmHg 71%
    21:00 -1°C° 0 mm 2 m/S 604 mmHg 68%
    22:00 -1°C° 0 mm 2 m/S 604 mmHg 69%
    23:00 -1°C° 0 mm 2 m/S 603 mmHg 69%

    Morgen, 16 Dezember, Montag

    Zeit Temperatur Niederschläge Wind Luftdruck Luftfeuchtigkeit
    00:00 -1°C° 0 mm 3 m/S 603 mmHg 70%
    01:00 -1°C° 0 mm 3 m/S 603 mmHg 73%
    02:00 -1°C° 0 mm 3 m/S 603 mmHg 77%
    03:00 -1°C° 0 mm 3 m/S 603 mmHg 80%
    04:00 -1°C° 0 mm 3 m/S 602 mmHg 80%
    05:00 0°C° 0 mm 3 m/S 602 mmHg 80%
    06:00 0°C° 0 mm 3 m/S 602 mmHg 80%
    07:00 0°C° 0 mm 3 m/S 602 mmHg 78%
    08:00 +1°C° 0 mm 3 m/S 603 mmHg 75%
    09:00 +1°C° 0 mm 3 m/S 603 mmHg 73%
    10:00 +1°C° 0 mm 4 m/S 603 mmHg 70%
    11:00 +3°C° 0 mm 4 m/S 603 mmHg 67%
    12:00 +4°C° 0 mm 4 m/S 603 mmHg 64%
    13:00 +4°C° 0 mm 4 m/S 602 mmHg 70%
    14:00 +4°C° 0 mm 4 m/S 601 mmHg 76%
    15:00 +3°C° 0 mm 4 m/S 601 mmHg 82%
    16:00 +3°C° 0 mm 4 m/S 600 mmHg 83%
    17:00 +1°C° 0 mm 4 m/S 600 mmHg 84%
    18:00 0°C° 0 mm 4 m/S 599 mmHg 85%
    19:00 0°C° 0 mm 4 m/S 599 mmHg 84%
    20:00 0°C° 0 mm 4 m/S 599 mmHg 83%
    21:00 -1°C° 0 mm 4 m/S 599 mmHg 82%
    22:00 -1°C° 0.1 mm 4 m/S 598 mmHg 81%
    23:00 -1°C° 0.1 mm 4 m/S 598 mmHg 80%

    übermorgen, 17 Dezember, Dienstag

    Zeit Temperatur Niederschläge Wind Luftdruck Luftfeuchtigkeit
    00:00 -1°C° 0.1 mm 4 m/S 598 mmHg 79%
    01:00 -1°C° 0.1 mm 4 m/S 598 mmHg 82%
    02:00 -1°C° 0.1 mm 4 m/S 598 mmHg 84%
    03:00 0°C° 0.1 mm 3 m/S 597 mmHg 87%
    04:00 0°C° 0.1 mm 3 m/S 597 mmHg 88%
    05:00 0°C° 0.1 mm 3 m/S 597 mmHg 89%
    06:00 0°C° 0.1 mm 3 m/S 596 mmHg 90%
    07:00 0°C° 0.1 mm 3 m/S 597 mmHg 89%
    08:00 +1°C° 0.1 mm 3 m/S 597 mmHg 89%
    09:00 0°C° 0.1 mm 4 m/S 598 mmHg 88%
    10:00 0°C° 0.5 mm 4 m/S 598 mmHg 88%
    11:00 0°C° 0.5 mm 4 m/S 598 mmHg 87%
    12:00 +1°C° 0.5 mm 4 m/S 599 mmHg 87%
    13:00 0°C° 1 mm 4 m/S 599 mmHg 90%
    14:00 +1°C° 1 mm 3 m/S 599 mmHg 92%
    15:00 +1°C° 1 mm 2 m/S 599 mmHg 95%
    16:00 +1°C° 1 mm 2 m/S 599 mmHg 95%
    17:00 +2°C° 1 mm 1 m/S 600 mmHg 96%
    18:00 +1°C° 1 mm 1 m/S 600 mmHg 96%
    19:00 +1°C° 0.4 mm 1 m/S 600 mmHg 97%
    20:00 +1°C° 0.4 mm 1 m/S 601 mmHg 97%
    21:00 +1°C° 0.4 mm 1 m/S 601 mmHg 98%
    22:00 +1°C° 0.7 mm 1 m/S 601 mmHg 97%
    23:00 +1°C° 0.7 mm 1 m/S 601 mmHg 97%

    18 Dezember, Mittwoch

    Zeit Temperatur Niederschläge Wind Luftdruck Luftfeuchtigkeit
    00:00 +1°C° 0.7 mm 1 m/S 602 mmHg 97%
    01:00 +1°C° 1 mm 1 m/S 602 mmHg 97%
    02:00 +1°C° 1 mm 1 m/S 602 mmHg 98%
    03:00 +1°C° 1 mm 1 m/S 602 mmHg 98%
    04:00 -1°C° 0.3 mm 2 m/S 602 mmHg 97%
    05:00 -2°C° 0.3 mm 2 m/S 602 mmHg 97%
    06:00 -2°C° 0.3 mm 2 m/S 602 mmHg 96%
    07:00 0°C° 0 mm 1 m/S 602 mmHg 95%
    08:00 +1°C° 0 mm 1 m/S 603 mmHg 93%
    09:00 +1°C° 0 mm 1 m/S 603 mmHg 91%
    10:00 +2°C° 0 mm 1 m/S 603 mmHg 89%
    11:00 +3°C° 0 mm 1 m/S 603 mmHg 86%
    12:00 +4°C° 0 mm 1 m/S 604 mmHg 83%
    13:00 +4°C° 0 mm 1 m/S 604 mmHg 85%
    14:00 +3°C° 0 mm 2 m/S 603 mmHg 86%
    15:00 +2°C° 0 mm 2 m/S 603 mmHg 87%
    16:00 +1°C° 0 mm 2 m/S 603 mmHg 89%
    17:00 -1°C° 0 mm 2 m/S 603 mmHg 91%
    18:00 -2°C° 0 mm 2 m/S 602 mmHg 92%
    19:00 -2°C° 0 mm 2 m/S 602 mmHg 91%
    20:00 -2°C° 0 mm 2 m/S 602 mmHg 89%
    21:00 -3°C° 0 mm 2 m/S 602 mmHg 87%
    22:00 -2°C° 0 mm 2 m/S 602 mmHg 88%
    23:00 -1°C° 0 mm 2 m/S 602 mmHg 89%

    19 Dezember, Donnerstag

    Zeit Temperatur Niederschläge Wind Luftdruck Luftfeuchtigkeit
    00:00 -1°C° 0 mm 2 m/S 603 mmHg 90%
    01:00 +1°C° 0.5 mm 2 m/S 602 mmHg 92%
    02:00 0°C° 0.5 mm 3 m/S 602 mmHg 93%
    03:00 0°C° 0.5 mm 3 m/S 602 mmHg 94%
    04:00 0°C° 0.8 mm 3 m/S 602 mmHg 95%
    05:00 +1°C° 0.8 mm 3 m/S 601 mmHg 95%
    06:00 +1°C° 0.8 mm 3 m/S 601 mmHg 96%
    07:00 +1°C° 0.3 mm 3 m/S 601 mmHg 96%
    08:00 0°C° 0.3 mm 4 m/S 601 mmHg 95%
    09:00 0°C° 0.3 mm 4 m/S 601 mmHg 95%
    10:00 0°C° 1.7 mm 4 m/S 601 mmHg 95%
    11:00 0°C° 1.7 mm 4 m/S 601 mmHg 95%
    12:00 +1°C° 1.7 mm 3 m/S 601 mmHg 94%
    13:00 0°C° 0.7 mm 4 m/S 600 mmHg 94%
    14:00 -1°C° 0.7 mm 4 m/S 600 mmHg 94%
    15:00 -1°C° 0.7 mm 4 m/S 600 mmHg 93%
    16:00 -1°C° 0.6 mm 3 m/S 599 mmHg 93%
    17:00 -2°C° 0.6 mm 3 m/S 599 mmHg 93%
    18:00 -4°C° 0.6 mm 3 m/S 599 mmHg 93%
    19:00 -4°C° 0 mm 3 m/S 599 mmHg 93%
    20:00 -4°C° 0 mm 3 m/S 599 mmHg 92%
    21:00 -4°C° 0 mm 3 m/S 599 mmHg 91%
    22:00 -4°C° 0.9 mm 4 m/S 598 mmHg 92%
    23:00 -4°C° 0.9 mm 4 m/S 597 mmHg 93%

    20 Dezember, Freitag

    Zeit Temperatur Niederschläge Wind Luftdruck Luftfeuchtigkeit
    00:00 -5°C° 0.9 mm 5 m/S 596 mmHg 94%
    01:00 -4°C° 4.1 mm 5 m/S 595 mmHg 94%
    02:00 -2°C° 4.1 mm 5 m/S 594 mmHg 95%
    03:00 -1°C° 4.1 mm 5 m/S 593 mmHg 96%
    04:00 -1°C° 5.7 mm 5 m/S 592 mmHg 96%
    05:00 0°C° 5.7 mm 5 m/S 592 mmHg 96%
    06:00 0°C° 5.7 mm 5 m/S 592 mmHg 96%
    07:00 0°C° 2 mm 4 m/S 592 mmHg 96%
    08:00 -1°C° 2 mm 4 m/S 592 mmHg 96%
    09:00 0°C° 2 mm 3 m/S 591 mmHg 95%
    10:00 0°C° 0.9 mm 3 m/S 592 mmHg 95%
    11:00 0°C° 0.9 mm 3 m/S 592 mmHg 95%
    12:00 -1°C° 0.9 mm 2 m/S 592 mmHg 95%
    13:00 -1°C° 1.7 mm 2 m/S 592 mmHg 96%
    14:00 -1°C° 1.7 mm 2 m/S 593 mmHg 97%
    15:00 -2°C° 1.7 mm 2 m/S 593 mmHg 98%
    16:00 -3°C° 0.2 mm 2 m/S 594 mmHg 97%
    17:00 -3°C° 0.2 mm 2 m/S 594 mmHg 96%
    18:00 -4°C° 0.2 mm 2 m/S 595 mmHg 95%
    19:00 -5°C° 0 mm 2 m/S 595 mmHg 91%
    20:00 -6°C° 0 mm 2 m/S 595 mmHg 87%
    21:00 -7°C° 0 mm 2 m/S 595 mmHg 83%
    22:00 -7°C° 0 mm 2 m/S 596 mmHg 81%
    23:00 -7°C° 0 mm 2 m/S 596 mmHg 80%
    Mehr zeigen